Time,TemperatureF,DewpointF,PressureIn,WindDirection,WindDirectionDegrees,WindSpeedMPH,WindSpeedGustMPH,Humidity,HourlyPrecipIn,Conditions,Clouds,dailyrainin,SoftwareType,DateUTC
2013-04-29 00:02:00,57.9,23.2,30.15,North,0,0.0,0.0,26,0.00,CLR,OVC,0.00,WeatherDisplay:10.37,2013-04-29 05:02:00,
2013-04-29 00:07:00,57.9,23.2,30.15,North,0,0.0,0.0,26,0.00,CLR,OVC,0.00,WeatherDisplay:10.37,2013-04-29 05:07:00,
2013-04-29 00:12:00,57.7,23.9,30.15,North,0,0.0,0.0,27,0.00,CLR,OVC,0.00,WeatherDisplay:10.37,2013-04-29 05:12:00,
2013-04-29 00:17:00,57.6,23.8,30.18,North,0,0.0,0.0,27,0.00,CLR,OVC,0.00,WeatherDisplay:10.37,2013-04-29 05:17:00,
2013-04-29 00:22:00,57.4,23.6,30.18,North,0,0.0,0.0,27,0.00,CLR,OVC,0.00,WeatherDisplay:10.37,2013-04-29 05:22:00,
2013-04-29 00:27:00,57.2,23.5,30.18,North,0,0.0,0.0,27,0.00,CLR,OVC,0.00,WeatherDisplay:10.37,2013-04-29 05:27:00,
2013-04-29 00:32:00,57.2,24.3,30.18,North,0,0.0,0.0,28,0.00,CLR,OVC,0.00,WeatherDisplay:10.37,2013-04-29 05:32:00,
2013-04-29 00:37:00,57.2,25.2,30.18,North,0,0.0,0.0,29,0.00,CLR,OVC,0.00,WeatherDisplay:10.37,2013-04-29 05:37:00,
2013-04-29 00:42:00,57.2,25.2,30.18,North,0,0.0,0.0,29,0.00,CLR,OVC,0.00,WeatherDisplay:10.37,2013-04-29 05:42:00,
2013-04-29 00:47:00,57.0,25.0,30.18,North,0,0.0,0.0,29,0.00,CLR,OVC,0.00,WeatherDisplay:10.37,2013-04-29 05:47:00,
2013-04-29 00:52:00,57.0,25.0,30.18,North,0,0.0,0.0,29,0.00,CLR,OVC,0.00,WeatherDisplay:10.37,2013-04-29 05:52:00,
2013-04-29 00:57:00,56.8,24.9,30.18,North,0,0.0,0.0,29,0.00,CLR,OVC,0.00,WeatherDisplay:10.37,2013-04-29 05:57:00,
2013-04-29 01:02:00,56.7,24.7,30.18,North,0,0.0,0.0,29,0.00,CLR,OVC,0.00,WeatherDisplay:10.37,2013-04-29 06:02:00,
2013-04-29 01:07:00,56.5,25.4,30.18,North,0,0.0,0.0,30,0.00,CLR,OVC,0.00,WeatherDisplay:10.37,2013-04-29 06:07:00,
2013-04-29 01:12:00,56.5,25.4,30.18,North,0,0.0,0.0,30,0.00,CLR,OVC,0.00,WeatherDisplay:10.37,2013-04-29 06:12:00,
2013-04-29 01:17:00,56.3,26.0,30.18,North,0,0.0,0.0,31,0.00,CLR,OVC,0.00,WeatherDisplay:10.37,2013-04-29 06:17:00,
2013-04-29 01:22:00,56.3,26.0,30.18,North,0,0.0,0.0,31,0.00,CLR,OVC,0.00,WeatherDisplay:10.37,2013-04-29 06:22:00,
2013-04-29 01:27:00,56.1,25.9,30.18,North,0,0.0,0.0,31,0.00,CLR,OVC,0.00,WeatherDisplay:10.37,2013-04-29 06:27:00,
2013-04-29 01:32:00,55.9,26.5,30.18,North,0,0.0,0.0,32,0.00,CLR,OVC,0.00,WeatherDisplay:10.37,2013-04-29 06:32:00,
2013-04-29 01:37:00,55.8,26.3,30.18,North,0,0.0,0.0,32,0.00,CLR,OVC,0.00,WeatherDisplay:10.37,2013-04-29 06:37:00,
2013-04-29 01:42:00,55.6,26.9,30.18,North,0,0.0,0.0,33,0.00,CLR,OVC,0.00,WeatherDisplay:10.37,2013-04-29 06:42:00,
2013-04-29 01:47:00,55.4,26.7,30.18,North,0,0.0,0.0,33,0.00,CLR,OVC,0.00,WeatherDisplay:10.37,2013-04-29 06:47:00,
2013-04-29 01:52:00,55.2,27.3,30.18,North,0,0.0,0.0,34,0.00,CLR,OVC,0.00,WeatherDisplay:10.37,2013-04-29 06:52:00,
2013-04-29 01:57:00,55.2,28.0,30.18,North,0,0.0,0.0,35,0.00,CLR,OVC,0.00,WeatherDisplay:10.37,2013-04-29 06:57:00,
2013-04-29 02:02:00,55.0,27.9,30.18,North,0,0.0,0.0,35,0.00,CLR,OVC,0.00,WeatherDisplay:10.37,2013-04-29 07:02:00,
2013-04-29 02:07:00,55.0,27.9,30.18,North,0,0.0,0.0,35,0.00,CLR,OVC,0.00,WeatherDisplay:10.37,2013-04-29 07:07:00,
2013-04-29 02:12:00,54.9,27.7,30.18,North,0,0.0,0.0,35,0.00,CLR,OVC,0.00,WeatherDisplay:10.37,2013-04-29 07:12:00,
2013-04-29 02:17:00,54.7,27.5,30.18,North,0,0.0,0.0,35,0.00,CLR,OVC,0.00,WeatherDisplay:10.37,2013-04-29 07:17:00,
2013-04-29 02:22:00,54.5,27.4,30.18,North,0,0.0,0.0,35,0.00,CLR,OVC,0.00,WeatherDisplay:10.37,2013-04-29 07:22:00,
2013-04-29 02:27:00,54.3,27.2,30.18,North,0,0.0,0.0,35,0.00,CLR,OVC,0.00,WeatherDisplay:10.37,2013-04-29 07:27:00,
2013-04-29 02:32:00,54.1,27.7,30.18,North,0,0.0,0.0,36,0.00,CLR,OVC,0.00,WeatherDisplay:10.37,2013-04-29 07:32:00,
2013-04-29 02:37:00,54.0,27.6,30.18,North,0,0.0,0.0,36,0.00,CLR,OVC,0.00,WeatherDisplay:10.37,2013-04-29 07:37:00,
2013-04-29 02:42:00,53.8,27.4,30.18,North,0,0.0,0.0,36,0.00,CLR,OVC,0.00,WeatherDisplay:10.37,2013-04-29 07:42:00,
2013-04-29 02:47:00,53.6,27.3,30.15,North,0,0.0,0.0,36,0.00,CLR,OVC,0.00,WeatherDisplay:10.37,2013-04-29 07:47:00,
2013-04-29 02:52:00,53.6,27.3,30.15,North,0,0.0,0.0,36,0.00,CLR,OVC,0.00,WeatherDisplay:10.37,2013-04-29 07:52:00,
2013-04-29 02:57:00,53.6,27.3,30.15,North,0,0.0,0.0,36,0.00,CLR,OVC,0.00,WeatherDisplay:10.37,2013-04-29 07:57:00,
2013-04-29 03:02:00,53.6,27.3,30.15,North,0,0.0,0.0,36,0.00,CLR,OVC,0.00,WeatherDisplay:10.37,2013-04-29 08:02:00,
2013-04-29 03:07:00,53.4,27.8,30.15,North,0,0.0,0.0,37,0.00,CLR,OVC,0.00,WeatherDisplay:10.37,2013-04-29 08:07:00,
2013-04-29 03:12:00,53.4,27.8,30.15,North,0,0.0,0.0,37,0.00,CLR,OVC,0.00,WeatherDisplay:10.37,2013-04-29 08:12:00,
2013-04-29 03:17:00,53.4,27.8,30.15,North,0,0.0,0.0,37,0.00,CLR,OVC,0.00,WeatherDisplay:10.37,2013-04-29 08:17:00,
2013-04-29 03:22:00,53.2,27.6,30.15,North,0,0.0,0.0,37,0.00,CLR,OVC,0.00,WeatherDisplay:10.37,2013-04-29 08:22:00,
2013-04-29 03:27:00,53.2,27.6,30.15,North,0,0.0,0.0,37,0.00,CLR,OVC,0.00,WeatherDisplay:10.37,2013-04-29 08:27:00,
2013-04-29 03:32:00,53.1,27.4,30.15,North,0,0.0,0.0,37,0.00,CLR,OVC,0.00,WeatherDisplay:10.37,2013-04-29 08:32:00,
2013-04-29 03:37:00,53.1,27.4,30.15,North,0,0.0,0.0,37,0.00,CLR,OVC,0.00,WeatherDisplay:10.37,2013-04-29 08:37:00,
2013-04-29 03:42:00,53.1,27.4,30.15,North,0,0.0,0.0,37,0.00,CLR,OVC,0.00,WeatherDisplay:10.37,2013-04-29 08:42:00,
2013-04-29 03:47:00,52.9,27.3,30.15,North,0,0.0,0.0,37,0.00,CLR,OVC,0.00,WeatherDisplay:10.37,2013-04-29 08:47:00,
2013-04-29 03:52:00,52.7,27.1,30.15,North,0,0.0,0.0,37,0.00,CLR,OVC,0.00,WeatherDisplay:10.37,2013-04-29 08:52:00,
2013-04-29 03:57:00,52.5,27.6,30.15,North,0,0.0,0.0,38,0.00,CLR,OVC,0.00,WeatherDisplay:10.37,2013-04-29 08:57:00,
2013-04-29 04:02:00,52.3,27.5,30.15,North,0,0.0,0.0,38,0.00,CLR,OVC,0.00,WeatherDisplay:10.37,2013-04-29 09:02:00,
2013-04-29 04:07:00,52.2,27.3,30.15,North,0,0.0,0.0,38,0.00,CLR,OVC,0.00,WeatherDisplay:10.37,2013-04-29 09:07:00,
2013-04-29 04:12:00,52.0,27.1,30.15,North,0,0.0,0.0,38,0.00,CLR,OVC,0.00,WeatherDisplay:10.37,2013-04-29 09:12:00,
2013-04-29 04:17:00,51.6,26.8,30.15,North,0,0.0,0.0,38,0.00,CLR,OVC,0.00,WeatherDisplay:10.37,2013-04-29 09:17:00,
2013-04-29 04:22:00,51.6,26.8,30.15,North,0,0.0,0.0,38,0.00,CLR,OVC,0.00,WeatherDisplay:10.37,2013-04-29 09:22:00,
2013-04-29 04:27:00,51.4,26.6,30.15,North,0,0.0,0.0,38,0.00,CLR,OVC,0.00,WeatherDisplay:10.37,2013-04-29 09:27:00,
2013-04-29 04:32:00,51.4,27.3,30.15,North,0,0.0,0.0,39,0.00,CLR,OVC,0.00,WeatherDisplay:10.37,2013-04-29 09:32:00,
2013-04-29 04:37:00,51.4,27.3,30.15,North,0,0.0,0.0,39,0.00,CLR,OVC,0.00,WeatherDisplay:10.37,2013-04-29 09:37:00,
2013-04-29 04:42:00,51.4,27.3,30.15,North,0,0.0,0.0,39,0.00,CLR,OVC,0.00,WeatherDisplay:10.37,2013-04-29 09:42:00,
2013-04-29 04:47:00,51.3,27.1,30.15,North,0,0.0,0.0,39,0.00,CLR,OVC,0.00,WeatherDisplay:10.37,2013-04-29 09:47:00,
2013-04-29 04:52:00,51.4,27.3,30.15,North,0,0.0,0.0,39,0.00,CLR,OVC,0.00,WeatherDisplay:10.37,2013-04-29 09:52:00,
2013-04-29 04:57:00,51.4,27.9,30.15,North,0,0.0,0.0,40,0.00,CLR,OVC,0.00,WeatherDisplay:10.37,2013-04-29 09:57:00,
2013-04-29 05:02:00,51.4,27.9,30.15,North,0,0.0,0.0,40,0.00,CLR,OVC,0.00,WeatherDisplay:10.37,2013-04-29 10:02:00,
2013-04-29 05:07:00,51.4,27.9,30.15,North,0,0.0,0.0,40,0.00,CLR,OVC,0.00,WeatherDisplay:10.37,2013-04-29 10:07:00,
2013-04-29 05:12:00,51.4,27.9,30.15,North,0,0.0,0.0,40,0.00,CLR,OVC,0.00,WeatherDisplay:10.37,2013-04-29 10:12:00,
2013-04-29 05:17:00,51.3,27.7,30.15,North,0,0.0,0.0,40,0.00,CLR,OVC,0.00,WeatherDisplay:10.37,2013-04-29 10:17:00,
2013-04-29 05:22:00,51.3,27.7,30.15,North,0,0.0,0.0,40,0.00,CLR,OVC,0.00,WeatherDisplay:10.37,2013-04-29 10:22:00,
2013-04-29 05:27:00,51.1,27.6,30.15,North,0,0.0,0.0,40,0.00,CLR,OVC,0.00,WeatherDisplay:10.37,2013-04-29 10:27:00,
2013-04-29 05:32:00,51.1,27.6,30.15,North,0,0.0,0.0,40,0.00,CLR,OVC,0.00,WeatherDisplay:10.37,2013-04-29 10:32:00,
2013-04-29 05:37:00,50.9,27.4,30.15,North,0,0.0,0.0,40,0.00,CLR,OVC,0.00,WeatherDisplay:10.37,2013-04-29 10:37:00,
2013-04-29 05:42:00,50.7,27.2,30.15,North,0,0.0,0.0,40,0.00,CLR,OVC,0.00,WeatherDisplay:10.37,2013-04-29 10:42:00,
2013-04-29 05:47:00,50.5,27.1,30.18,North,0,0.0,0.0,40,0.00,CLR,OVC,0.00,WeatherDisplay:10.37,2013-04-29 10:47:00,
2013-04-29 05:52:00,50.5,27.7,30.18,North,0,0.0,0.0,41,0.00,CLR,OVC,0.00,WeatherDisplay:10.37,2013-04-29 10:52:00,
2013-04-29 05:57:00,50.4,27.5,30.18,North,0,0.0,0.0,41,0.00,CLR,OVC,0.00,WeatherDisplay:10.37,2013-04-29 10:57:00,
2013-04-29 06:02:00,50.4,27.5,30.18,North,0,0.0,0.0,41,0.00,CLR,OVC,0.00,WeatherDisplay:10.37,2013-04-29 11:02:00,
2013-04-29 06:07:00,50.4,27.5,30.18,North,0,0.0,0.0,41,0.00,CLR,OVC,0.00,WeatherDisplay:10.37,2013-04-29 11:07:00,
2013-04-29 06:12:00,50.4,27.5,30.18,North,0,0.0,0.0,41,0.00,CLR,OVC,0.00,WeatherDisplay:10.37,2013-04-29 11:12:00,
2013-04-29 06:17:00,50.4,27.5,30.18,North,0,0.0,0.0,41,0.00,CLR,OVC,0.00,WeatherDisplay:10.37,2013-04-29 11:17:00,
2013-04-29 06:22:00,50.4,27.5,30.18,North,0,0.0,0.0,41,0.00,CLR,OVC,0.00,WeatherDisplay:10.37,2013-04-29 11:22:00,
2013-04-29 06:27:00,50.4,27.5,30.18,North,0,0.0,0.0,41,0.00,CLR,OVC,0.00,WeatherDisplay:10.37,2013-04-29 11:27:00,
2013-04-29 06:32:00,50.5,28.3,30.18,North,0,0.0,0.0,42,0.00,CLR,OVC,0.00,WeatherDisplay:10.37,2013-04-29 11:32:00,
2013-04-29 06:37:00,50.5,28.3,30.18,North,0,0.0,0.0,42,0.00,CLR,OVC,0.00,WeatherDisplay:10.37,2013-04-29 11:37:00,
2013-04-29 06:42:00,50.7,28.4,30.18,North,0,0.0,0.0,42,0.00,CLR,OVC,0.00,WeatherDisplay:10.37,2013-04-29 11:42:00,
2013-04-29 06:47:00,50.7,28.4,30.15,North,0,0.0,0.0,42,0.00,CLR,OVC,0.00,WeatherDisplay:10.37,2013-04-29 11:47:00,
2013-04-29 06:52:00,50.9,28.6,30.15,North,0,0.0,0.0,42,0.00,CLR,OVC,0.00,WeatherDisplay:10.37,2013-04-29 11:52:00,
2013-04-29 06:57:00,51.1,28.8,30.15,North,0,0.0,0.0,42,0.00,CLR,OVC,0.00,WeatherDisplay:10.37,2013-04-29 11:57:00,
2013-04-29 07:02:00,51.3,28.9,30.15,North,0,0.0,0.0,42,0.00,CLR,OVC,0.00,WeatherDisplay:10.37,2013-04-29 12:02:00,
2013-04-29 07:07:00,51.3,28.9,30.15,North,0,0.0,0.0,42,0.00,CLR,OVC,0.00,WeatherDisplay:10.37,2013-04-29 12:07:00,
2013-04-29 07:12:00,51.4,29.1,30.15,North,0,0.0,0.0,42,0.00,CLR,OVC,0.00,WeatherDisplay:10.37,2013-04-29 12:12:00,
2013-04-29 07:17:00,51.6,29.3,30.15,North,0,0.0,0.0,42,0.00,CLR,OVC,0.00,WeatherDisplay:10.37,2013-04-29 12:17:00,
2013-04-29 07:22:00,51.8,29.4,30.15,North,0,0.0,0.0,42,0.00,CLR,OVC,0.00,WeatherDisplay:10.37,2013-04-29 12:22:00,
2013-04-29 07:27:00,52.2,29.7,30.15,North,0,0.0,0.0,42,0.00,CLR,OVC,0.00,WeatherDisplay:10.37,2013-04-29 12:27:00,
2013-04-29 07:32:00,52.7,30.2,30.15,North,0,0.0,0.0,42,0.00,CLR,OVC,0.00,WeatherDisplay:10.37,2013-04-29 12:32:00,
2013-04-29 07:37:00,53.2,30.7,30.15,North,0,0.0,0.0,42,0.00,CLR,OVC,0.00,WeatherDisplay:10.37,2013-04-29 12:37:00,
2013-04-29 07:42:00,53.6,30.4,30.15,North,0,0.0,0.0,41,0.00,CLR,OVC,0.00,WeatherDisplay:10.37,2013-04-29 12:42:00,
2013-04-29 07:47:00,54.1,30.3,30.15,North,0,0.0,0.0,40,0.00,CLR,OVC,0.00,WeatherDisplay:10.37,2013-04-29 12:47:00,
2013-04-29 07:52:00,54.5,30.6,30.15,North,0,0.0,0.0,40,0.00,CLR,OVC,0.00,WeatherDisplay:10.37,2013-04-29 12:52:00,
2013-04-29 07:57:00,54.7,30.2,30.15,North,0,0.0,0.0,39,0.00,CLR,OVC,0.00,WeatherDisplay:10.37,2013-04-29 12:57:00,
2013-04-29 08:02:00,55.0,29.9,30.15,North,0,0.0,0.0,38,0.00,CLR,OVC,0.00,WeatherDisplay:10.37,2013-04-29 13:02:00,
2013-04-29 08:07:00,55.4,29.5,30.15,North,0,0.0,0.0,37,0.00,CLR,OVC,0.00,WeatherDisplay:10.37,2013-04-29 13:07:00,
2013-04-29 08:12:00,55.9,30.0,30.15,North,0,0.0,0.0,37,0.00,CLR,OVC,0.00,WeatherDisplay:10.37,2013-04-29 13:12:00,
2013-04-29 08:17:00,56.5,29.8,30.15,North,0,0.0,0.0,36,0.00,CLR,OVC,0.00,WeatherDisplay:10.37,2013-04-29 13:17:00,
2013-04-29 08:22:00,56.8,30.1,30.15,North,0,0.0,0.0,36,0.00,CLR,OVC,0.00,WeatherDisplay:10.37,2013-04-29 13:22:00,
2013-04-29 08:27:00,57.6,30.1,30.15,North,0,0.0,0.0,35,0.00,CLR,OVC,0.00,WeatherDisplay:10.37,2013-04-29 13:27:00,
2013-04-29 08:32:00,58.3,30.0,30.15,North,0,0.0,0.0,34,0.00,CLR,OVC,0.00,WeatherDisplay:10.37,2013-04-29 13:32:00,
2013-04-29 08:37:00,59.0,28.4,30.15,North,0,0.0,0.0,31,0.00,CLR,OVC,0.00,WeatherDisplay:10.37,2013-04-29 13:37:00,
2013-04-29 08:42:00,59.7,27.4,30.15,North,0,0.0,0.0,29,0.00,CLR,OVC,0.00,WeatherDisplay:10.37,2013-04-29 13:42:00,
2013-04-29 08:47:00,60.1,25.0,30.15,North,0,0.0,0.0,26,0.00,CLR,OVC,0.00,WeatherDisplay:10.37,2013-04-29 13:47:00,
2013-04-29 08:52:00,60.4,25.4,30.15,North,0,0.0,0.0,26,0.00,CLR,OVC,0.00,WeatherDisplay:10.37,2013-04-29 13:52:00,
2013-04-29 08:57:00,61.0,24.9,30.15,North,0,0.0,0.0,25,0.00,CLR,OVC,0.00,WeatherDisplay:10.37,2013-04-29 13:57:00,
2013-04-29 09:02:00,61.3,24.2,30.15,North,0,0.0,0.0,24,0.00,CLR,OVC,0.00,WeatherDisplay:10.37,2013-04-29 14:02:00,
2013-04-29 09:07:00,61.9,24.7,30.15,North,0,0.0,0.0,24,0.00,CLR,OVC,0.00,WeatherDisplay:10.37,2013-04-29 14:07:00,
2013-04-29 09:12:00,62.2,25.0,30.15,North,0,0.0,0.0,24,0.00,CLR,OVC,0.00,WeatherDisplay:10.37,2013-04-29 14:12:00,
2013-04-29 09:17:00,62.8,22.2,30.12,North,0,0.0,0.0,21,0.00,CLR,OVC,0.00,WeatherDisplay:10.37,2013-04-29 14:17:00,
2013-04-29 09:22:00,63.3,19.0,30.12,North,0,0.0,0.0,18,0.00,CLR,OVC,0.00,WeatherDisplay:10.37,2013-04-29 14:22:00,
2013-04-29 09:27:00,63.5,19.2,30.12,North,0,0.0,0.0,18,0.00,CLR,OVC,0.00,WeatherDisplay:10.37,2013-04-29 14:27:00,
2013-04-29 09:32:00,64.0,19.6,30.12,North,0,0.0,0.0,18,0.00,CLR,OVC,0.00,WeatherDisplay:10.37,2013-04-29 14:32:00,
2013-04-29 09:37:00,64.4,15.7,30.12,North,0,0.0,0.0,15,0.00,CLR,OVC,0.00,WeatherDisplay:10.37,2013-04-29 14:37:00,
2013-04-29 09:42:00,64.9,16.1,30.12,North,0,0.0,0.0,15,0.00,CLR,OVC,0.00,WeatherDisplay:10.37,2013-04-29 14:42:00,
2013-04-29 09:47:00,65.5,16.5,30.15,North,0,0.0,0.0,15,0.00,CLR,OVC,0.00,WeatherDisplay:10.37,2013-04-29 14:47:00,
2013-04-29 09:52:00,65.8,13.6,30.15,North,0,0.0,0.0,13,0.00,CLR,OVC,0.00,WeatherDisplay:10.37,2013-04-29 14:52:00,
2013-04-29 09:57:00,66.2,12.0,30.15,North,0,0.0,0.0,12,0.00,CLR,OVC,0.00,WeatherDisplay:10.37,2013-04-29 14:57:00,
2013-04-29 10:02:00,66.7,12.4,30.12,North,0,0.0,0.0,12,0.00,CLR,OVC,0.00,WeatherDisplay:10.37,2013-04-29 15:02:00,
2013-04-29 10:07:00,67.3,12.9,30.12,North,0,0.0,0.0,12,0.00,CLR,OVC,0.00,WeatherDisplay:10.37,2013-04-29 15:07:00,
2013-04-29 10:12:00,67.6,13.1,30.12,North,0,0.0,0.0,12,0.00,CLR,OVC,0.00,WeatherDisplay:10.37,2013-04-29 15:12:00,
2013-04-29 10:17:00,68.2,9.5,30.12,North,0,0.0,0.0,10,0.00,CLR,OVC,0.00,WeatherDisplay:10.37,2013-04-29 15:17:00,
2013-04-29 10:22:00,68.5,9.7,30.12,North,0,0.0,0.0,10,0.00,CLR,OVC,0.00,WeatherDisplay:10.37,2013-04-29 15:22:00,
2013-04-29 10:27:00,68.7,9.9,30.12,North,0,0.0,0.0,10,0.00,CLR,OVC,0.00,WeatherDisplay:10.37,2013-04-29 15:27:00,
2013-04-29 10:32:00,68.9,10.0,30.12,North,0,0.0,0.0,10,0.00,CLR,OVC,0.00,WeatherDisplay:10.37,2013-04-29 15:32:00,
2013-04-29 10:37:00,68.9,10.0,30.12,North,0,0.0,0.0,10,0.00,CLR,OVC,0.00,WeatherDisplay:10.37,2013-04-29 15:37:00,
2013-04-29 10:42:00,69.1,10.1,30.12,North,0,0.0,0.0,10,0.00,CLR,OVC,0.00,WeatherDisplay:10.37,2013-04-29 15:42:00,
2013-04-29 10:47:00,69.4,10.4,30.09,North,0,0.0,0.0,10,0.00,CLR,OVC,0.00,WeatherDisplay:10.37,2013-04-29 15:47:00,
2013-04-29 10:52:00,69.6,10.6,30.09,North,0,0.0,0.0,10,0.00,CLR,OVC,0.00,WeatherDisplay:10.37,2013-04-29 15:52:00,
2013-04-29 10:57:00,69.6,10.6,30.09,North,0,0.0,0.0,10,0.00,CLR,OVC,0.00,WeatherDisplay:10.37,2013-04-29 15:57:00,
2013-04-29 11:02:00,69.4,10.4,30.09,North,0,0.0,0.0,10,0.00,CLR,OVC,0.00,WeatherDisplay:10.37,2013-04-29 16:02:00,
2013-04-29 11:07:00,69.4,10.4,30.09,North,0,0.0,0.0,10,0.00,CLR,OVC,0.00,WeatherDisplay:10.37,2013-04-29 16:07:00,
2013-04-29 11:12:00,69.4,10.4,30.09,North,0,0.0,0.0,10,0.00,CLR,OVC,0.00,WeatherDisplay:10.37,2013-04-29 16:12:00,
2013-04-29 11:17:00,69.8,8.3,30.12,North,0,0.0,0.0,9,0.00,CLR,OVC,0.00,WeatherDisplay:10.37,2013-04-29 16:17:00,
2013-04-29 11:22:00,70.3,8.8,30.12,North,0,0.0,0.0,9,0.00,CLR,OVC,0.00,WeatherDisplay:10.37,2013-04-29 16:22:00,
2013-04-29 11:27:00,70.9,9.2,30.12,North,0,0.0,0.0,9,0.00,CLR,OVC,0.00,WeatherDisplay:10.37,2013-04-29 16:27:00,
2013-04-29 11:32:00,71.4,9.6,30.09,North,0,0.0,0.0,9,0.00,CLR,OVC,0.00,WeatherDisplay:10.37,2013-04-29 16:32:00,
2013-04-29 11:37:00,71.6,9.7,30.09,North,0,0.0,0.0,9,0.00,CLR,OVC,0.00,WeatherDisplay:10.37,2013-04-29 16:37:00,
2013-04-29 11:42:00,72.0,10.0,30.09,North,0,0.0,0.0,9,0.00,CLR,OVC,0.00,WeatherDisplay:10.37,2013-04-29 16:42:00,
2013-04-29 11:47:00,72.3,10.3,30.09,North,0,0.0,0.0,9,0.00,CLR,OVC,0.00,WeatherDisplay:10.37,2013-04-29 16:47:00,
2013-04-29 11:52:00,73.0,10.8,30.09,North,0,0.0,0.0,9,0.00,CLR,OVC,0.00,WeatherDisplay:10.37,2013-04-29 16:52:00,
2013-04-29 11:57:00,73.8,8.7,30.09,North,0,0.0,0.0,8,0.00,CLR,OVC,0.00,WeatherDisplay:10.37,2013-04-29 16:57:00,
2013-04-29 12:02:00,74.1,9.0,30.09,North,0,0.0,0.0,8,0.00,CLR,OVC,0.00,WeatherDisplay:10.37,2013-04-29 17:02:00,
2013-04-29 12:07:00,74.3,9.1,30.09,North,0,0.0,0.0,8,0.00,CLR,OVC,0.00,WeatherDisplay:10.37,2013-04-29 17:07:00,
2013-04-29 12:12:00,74.7,9.4,30.09,North,0,0.0,0.0,8,0.00,CLR,OVC,0.00,WeatherDisplay:10.37,2013-04-29 17:12:00,
2013-04-29 12:17:00,74.8,9.5,30.09,North,0,0.0,0.0,8,0.00,CLR,OVC,0.00,WeatherDisplay:10.37,2013-04-29 17:17:00,
2013-04-29 12:22:00,75.2,9.8,30.09,North,0,0.0,0.0,8,0.00,CLR,OVC,0.00,WeatherDisplay:10.37,2013-04-29 17:22:00,
2013-04-29 12:27:00,75.2,9.8,30.09,North,0,0.0,0.0,8,0.00,CLR,OVC,0.00,WeatherDisplay:10.37,2013-04-29 17:27:00,
2013-04-29 12:33:00,75.2,9.8,30.06,North,0,0.0,0.0,8,0.00,CLR,OVC,0.00,WeatherDisplay:10.37,2013-04-29 17:33:00,
2013-04-29 12:38:00,76.1,10.4,30.06,North,0,0.0,0.0,8,0.00,CLR,OVC,0.00,WeatherDisplay:10.37,2013-04-29 17:38:00,
2013-04-29 12:43:00,76.8,11.0,30.06,North,0,0.0,0.0,8,0.00,CLR,OVC,0.00,WeatherDisplay:10.37,2013-04-29 17:43:00,
2013-04-29 12:48:00,76.6,10.9,30.06,North,0,0.0,0.0,8,0.00,CLR,OVC,0.00,WeatherDisplay:10.37,2013-04-29 17:48:00,
2013-04-29 12:53:00,77.0,11.1,30.06,North,0,0.0,0.0,8,0.00,CLR,OVC,0.00,WeatherDisplay:10.37,2013-04-29 17:53:00,
2013-04-29 12:58:00,77.4,11.4,30.06,North,0,0.0,0.0,8,0.00,CLR,OVC,0.00,WeatherDisplay:10.37,2013-04-29 17:58:00,
2013-04-29 13:03:00,77.7,11.7,30.06,North,0,0.0,0.0,8,0.00,CLR,OVC,0.00,WeatherDisplay:10.37,2013-04-29 18:03:00,
2013-04-29 13:08:00,78.1,11.9,30.06,North,0,0.0,0.0,8,0.00,CLR,OVC,0.00,WeatherDisplay:10.37,2013-04-29 18:08:00,
2013-04-29 13:13:00,78.4,12.2,30.06,North,0,0.0,0.0,8,0.00,CLR,OVC,0.00,WeatherDisplay:10.37,2013-04-29 18:13:00,
2013-04-29 13:18:00,78.4,12.2,30.06,North,0,0.0,0.0,8,0.00,CLR,OVC,0.00,WeatherDisplay:10.37,2013-04-29 18:18:00,
2013-04-29 13:23:00,79.0,9.6,30.06,North,0,0.0,0.0,7,0.00,CLR,OVC,0.00,WeatherDisplay:10.37,2013-04-29 18:23:00,
2013-04-29 13:28:00,79.3,9.9,30.06,North,0,0.0,0.0,7,0.00,CLR,OVC,0.00,WeatherDisplay:10.37,2013-04-29 18:28:00,
2013-04-29 13:33:00,79.3,9.9,30.06,North,0,0.0,0.0,7,0.00,CLR,OVC,0.00,WeatherDisplay:10.37,2013-04-29 18:33:00,
2013-04-29 13:38:00,79.7,10.1,30.06,North,0,0.0,0.0,7,0.00,CLR,OVC,0.00,WeatherDisplay:10.37,2013-04-29 18:38:00,
2013-04-29 13:43:00,80.4,10.6,30.06,North,0,0.0,0.0,7,0.00,CLR,OVC,0.00,WeatherDisplay:10.37,2013-04-29 18:43:00,
2013-04-29 13:48:00,80.8,10.9,30.06,North,0,0.0,0.0,7,0.00,CLR,OVC,0.00,WeatherDisplay:10.37,2013-04-29 18:48:00,
2013-04-29 13:53:00,80.8,10.9,30.06,North,0,0.0,0.0,7,0.00,CLR,OVC,0.00,WeatherDisplay:10.37,2013-04-29 18:53:00,
2013-04-29 13:58:00,81.5,11.4,30.06,North,0,0.0,0.0,7,0.00,CLR,OVC,0.00,WeatherDisplay:10.37,2013-04-29 18:58:00,
2013-04-29 14:03:00,81.1,11.2,30.06,North,0,0.0,0.0,7,0.00,CLR,OVC,0.00,WeatherDisplay:10.37,2013-04-29 19:03:00,
2013-04-29 14:08:00,81.0,11.0,30.06,North,0,0.0,0.0,7,0.00,CLR,OVC,0.00,WeatherDisplay:10.37,2013-04-29 19:08:00,
2013-04-29 14:13:00,80.6,10.8,30.06,North,0,0.0,0.0,7,0.00,CLR,OVC,0.00,WeatherDisplay:10.37,2013-04-29 19:13:00,
2013-04-29 14:18:00,80.6,10.8,30.06,North,0,0.0,0.0,7,0.00,CLR,OVC,0.00,WeatherDisplay:10.37,2013-04-29 19:18:00,
2013-04-29 14:23:00,80.8,10.9,30.06,North,0,0.0,0.0,7,0.00,CLR,OVC,0.00,WeatherDisplay:10.37,2013-04-29 19:23:00,
2013-04-29 14:28:00,81.0,11.0,30.06,North,0,0.0,0.0,7,0.00,CLR,OVC,0.00,WeatherDisplay:10.37,2013-04-29 19:28:00,
2013-04-29 14:33:00,81.1,11.2,30.03,North,0,0.0,0.0,7,0.00,CLR,OVC,0.00,WeatherDisplay:10.37,2013-04-29 19:33:00,
2013-04-29 14:38:00,81.1,11.2,30.03,North,0,0.0,0.0,7,0.00,CLR,OVC,0.00,WeatherDisplay:10.37,2013-04-29 19:38:00,
2013-04-29 14:43:00,81.1,11.2,30.03,North,0,0.0,0.0,7,0.00,CLR,OVC,0.00,WeatherDisplay:10.37,2013-04-29 19:43:00,
2013-04-29 14:48:00,81.1,11.2,30.06,North,0,0.0,0.0,7,0.00,CLR,OVC,0.00,WeatherDisplay:10.37,2013-04-29 19:48:00,
2013-04-29 14:53:00,81.1,11.2,30.06,North,0,0.0,0.0,7,0.00,CLR,OVC,0.00,WeatherDisplay:10.37,2013-04-29 19:53:00,
2013-04-29 14:58:00,81.5,11.4,30.06,North,0,0.0,0.0,7,0.00,CLR,OVC,0.00,WeatherDisplay:10.37,2013-04-29 19:58:00,
2013-04-29 15:03:00,82.0,11.8,30.03,North,0,0.0,0.0,7,0.00,CLR,OVC,0.00,WeatherDisplay:10.37,2013-04-29 20:03:00,
2013-04-29 15:08:00,81.9,11.7,30.03,North,0,0.0,0.0,7,0.00,CLR,OVC,0.00,WeatherDisplay:10.37,2013-04-29 20:08:00,
2013-04-29 15:13:00,82.0,11.8,30.03,North,0,0.0,0.0,7,0.00,CLR,OVC,0.00,WeatherDisplay:10.37,2013-04-29 20:13:00,
2013-04-29 15:18:00,82.0,11.8,30.03,North,0,0.0,0.0,7,0.00,CLR,OVC,0.00,WeatherDisplay:10.37,2013-04-29 20:18:00,
2013-04-29 15:23:00,82.0,11.8,30.03,North,0,0.0,0.0,7,0.00,CLR,OVC,0.00,WeatherDisplay:10.37,2013-04-29 20:23:00,
2013-04-29 15:28:00,82.0,11.8,30.03,North,0,0.0,0.0,7,0.00,CLR,OVC,0.00,WeatherDisplay:10.37,2013-04-29 20:28:00,
2013-04-29 15:33:00,82.4,8.6,30.03,North,0,0.0,0.0,6,0.00,CLR,OVC,0.00,WeatherDisplay:10.37,2013-04-29 20:33:00,
2013-04-29 15:38:00,82.6,8.8,30.03,North,0,0.0,0.0,6,0.00,CLR,OVC,0.00,WeatherDisplay:10.37,2013-04-29 20:38:00,
2013-04-29 15:43:00,82.2,12.0,30.03,North,0,0.0,0.0,7,0.00,CLR,OVC,0.00,WeatherDisplay:10.37,2013-04-29 20:43:00,
2013-04-29 15:48:00,81.9,11.7,30.00,North,0,0.0,0.0,7,0.00,CLR,OVC,0.00,WeatherDisplay:10.37,2013-04-29 20:48:00,
2013-04-29 15:53:00,81.0,11.0,30.00,North,0,0.0,0.0,7,0.00,CLR,OVC,0.00,WeatherDisplay:10.37,2013-04-29 20:53:00,
2013-04-29 15:58:00,80.2,10.5,30.00,North,0,0.0,0.0,7,0.00,CLR,OVC,0.00,WeatherDisplay:10.37,2013-04-29 20:58:00,
2013-04-29 16:03:00,79.7,10.1,30.00,North,0,0.0,0.0,7,0.00,CLR,OVC,0.00,WeatherDisplay:10.37,2013-04-29 21:03:00,
2013-04-29 16:08:00,79.9,10.2,30.00,North,0,0.0,0.0,7,0.00,CLR,OVC,0.00,WeatherDisplay:10.37,2013-04-29 21:08:00,
2013-04-29 16:13:00,80.6,10.8,30.00,North,0,0.0,0.0,7,0.00,CLR,OVC,0.00,WeatherDisplay:10.37,2013-04-29 21:13:00,
2013-04-29 16:18:00,81.1,11.2,30.00,North,0,0.0,0.0,7,0.00,CLR,OVC,0.00,WeatherDisplay:10.37,2013-04-29 21:18:00,
2013-04-29 16:23:00,81.5,11.4,30.00,North,0,0.0,0.0,7,0.00,CLR,OVC,0.00,WeatherDisplay:10.37,2013-04-29 21:23:00,
2013-04-29 16:28:00,82.4,8.6,30.00,North,0,0.0,0.0,6,0.00,CLR,OVC,0.00,WeatherDisplay:10.37,2013-04-29 21:28:00,
2013-04-29 16:33:00,82.9,9.0,30.00,North,0,0.0,0.0,6,0.00,CLR,OVC,0.00,WeatherDisplay:10.37,2013-04-29 21:33:00,
2013-04-29 16:38:00,82.8,8.9,30.00,North,0,0.0,0.0,6,0.00,CLR,OVC,0.00,WeatherDisplay:10.37,2013-04-29 21:38:00,
2013-04-29 16:43:00,82.6,8.8,30.00,North,0,0.0,0.0,6,0.00,CLR,OVC,0.00,WeatherDisplay:10.37,2013-04-29 21:43:00,
2013-04-29 16:48:00,82.2,12.0,30.00,North,0,0.0,0.0,7,0.00,CLR,OVC,0.00,WeatherDisplay:10.37,2013-04-29 21:48:00,
2013-04-29 16:53:00,81.7,11.6,30.00,North,0,0.0,0.0,7,0.00,CLR,OVC,0.00,WeatherDisplay:10.37,2013-04-29 21:53:00,
2013-04-29 16:58:00,81.5,11.4,30.00,North,0,0.0,0.0,7,0.00,CLR,OVC,0.00,WeatherDisplay:10.37,2013-04-29 21:58:00,
2013-04-29 17:03:00,82.0,11.8,30.00,North,0,0.0,0.0,7,0.00,CLR,OVC,0.00,WeatherDisplay:10.37,2013-04-29 22:03:00,
2013-04-29 17:08:00,82.2,12.0,30.00,North,0,0.0,0.0,7,0.00,CLR,OVC,0.00,WeatherDisplay:10.37,2013-04-29 22:08:00,
2013-04-29 17:13:00,81.9,11.7,30.00,North,0,0.0,0.0,7,0.00,CLR,OVC,0.00,WeatherDisplay:10.37,2013-04-29 22:13:00,
2013-04-29 17:18:00,81.7,11.6,30.00,North,0,0.0,0.0,7,0.00,CLR,OVC,0.00,WeatherDisplay:10.37,2013-04-29 22:18:00,
2013-04-29 17:23:00,81.5,11.4,30.00,North,0,0.0,0.0,7,0.00,CLR,OVC,0.00,WeatherDisplay:10.37,2013-04-29 22:23:00,
2013-04-29 17:28:00,81.0,11.0,30.00,North,0,0.0,0.0,7,0.00,CLR,OVC,0.00,WeatherDisplay:10.37,2013-04-29 22:28:00,
2013-04-29 17:33:00,80.4,10.6,30.00,North,0,0.0,0.0,7,0.00,CLR,OVC,0.00,WeatherDisplay:10.37,2013-04-29 22:33:00,
2013-04-29 17:38:00,79.9,10.2,30.00,North,0,0.0,0.0,7,0.00,CLR,OVC,0.00,WeatherDisplay:10.37,2013-04-29 22:38:00,
2013-04-29 17:43:00,79.3,9.9,30.00,North,0,0.0,0.0,7,0.00,CLR,OVC,0.00,WeatherDisplay:10.37,2013-04-29 22:43:00,
2013-04-29 17:48:00,79.2,9.7,30.00,North,0,0.0,0.0,7,0.00,CLR,OVC,0.00,WeatherDisplay:10.37,2013-04-29 22:48:00,
2013-04-29 17:53:00,79.0,9.6,30.00,North,0,0.0,0.0,7,0.00,CLR,OVC,0.00,WeatherDisplay:10.37,2013-04-29 22:53:00,
2013-04-29 17:58:00,79.0,9.6,30.00,North,0,0.0,0.0,7,0.00,CLR,OVC,0.00,WeatherDisplay:10.37,2013-04-29 22:58:00,
2013-04-29 18:03:00,79.2,9.7,30.00,North,0,0.0,0.0,7,0.00,CLR,OVC,0.00,WeatherDisplay:10.37,2013-04-29 23:03:00,
2013-04-29 18:08:00,79.2,9.7,30.00,North,0,0.0,0.0,7,0.00,CLR,OVC,0.00,WeatherDisplay:10.37,2013-04-29 23:08:00,
2013-04-29 18:13:00,79.2,9.7,30.00,North,0,0.0,0.0,7,0.00,CLR,OVC,0.00,WeatherDisplay:10.37,2013-04-29 23:13:00,
2013-04-29 18:18:00,79.2,9.7,30.00,North,0,0.0,0.0,7,0.00,CLR,OVC,0.00,WeatherDisplay:10.37,2013-04-29 23:18:00,
2013-04-29 18:23:00,79.0,9.6,30.00,North,0,0.0,0.0,7,0.00,CLR,OVC,0.00,WeatherDisplay:10.37,2013-04-29 23:23:00,
2013-04-29 18:28:00,78.8,9.5,30.00,North,0,0.0,0.0,7,0.00,CLR,OVC,0.00,WeatherDisplay:10.37,2013-04-29 23:28:00,
2013-04-29 18:33:00,78.6,12.3,30.00,North,0,0.0,0.0,8,0.00,CLR,OVC,0.00,WeatherDisplay:10.37,2013-04-29 23:33:00,
2013-04-29 18:38:00,78.3,12.1,30.00,North,0,0.0,0.0,8,0.00,CLR,OVC,0.00,WeatherDisplay:10.37,2013-04-29 23:38:00,
2013-04-29 18:43:00,78.1,11.9,30.00,North,0,0.0,0.0,8,0.00,CLR,OVC,0.00,WeatherDisplay:10.37,2013-04-29 23:43:00,
2013-04-29 18:48:00,77.9,11.8,30.03,North,0,0.0,0.0,8,0.00,CLR,OVC,0.00,WeatherDisplay:10.37,2013-04-29 23:48:00,
2013-04-29 18:53:00,77.7,11.7,30.03,North,0,0.0,0.0,8,0.00,CLR,OVC,0.00,WeatherDisplay:10.37,2013-04-29 23:53:00,
2013-04-29 18:58:00,77.5,11.5,30.03,North,0,0.0,0.0,8,0.00,CLR,OVC,0.00,WeatherDisplay:10.37,2013-04-29 23:58:00,
2013-04-29 19:03:00,77.4,11.4,30.03,North,0,0.0,0.0,8,0.00,CLR,OVC,0.00,WeatherDisplay:10.37,2013-04-30 00:03:00,
2013-04-29 19:08:00,77.2,11.3,30.03,North,0,0.0,0.0,8,0.00,CLR,OVC,0.00,WeatherDisplay:10.37,2013-04-30 00:08:00,
2013-04-29 19:13:00,77.0,11.1,30.03,North,0,0.0,0.0,8,0.00,CLR,OVC,0.00,WeatherDisplay:10.37,2013-04-30 00:13:00,
2013-04-29 19:18:00,76.6,10.9,30.03,North,0,0.0,0.0,8,0.00,CLR,OVC,0.00,WeatherDisplay:10.37,2013-04-30 00:18:00,
2013-04-29 19:23:00,76.5,10.7,30.03,North,0,0.0,0.0,8,0.00,CLR,OVC,0.00,WeatherDisplay:10.37,2013-04-30 00:23:00,
2013-04-29 19:28:00,76.1,10.4,30.03,North,0,0.0,0.0,8,0.00,CLR,OVC,0.00,WeatherDisplay:10.37,2013-04-30 00:28:00,
2013-04-29 19:33:00,75.9,10.3,30.03,North,0,0.0,0.0,8,0.00,CLR,OVC,0.00,WeatherDisplay:10.37,2013-04-30 00:33:00,
2013-04-29 19:38:00,75.6,10.0,30.03,North,0,0.0,0.0,8,0.00,CLR,OVC,0.00,WeatherDisplay:10.37,2013-04-30 00:38:00,
2013-04-29 19:43:00,75.4,9.9,30.00,North,0,0.0,0.0,8,0.00,CLR,OVC,0.00,WeatherDisplay:10.37,2013-04-30 00:43:00,
2013-04-29 19:48:00,75.0,9.6,30.00,North,0,0.0,0.0,8,0.00,CLR,OVC,0.00,WeatherDisplay:10.37,2013-04-30 00:48:00,
2013-04-29 19:53:00,74.8,9.5,30.00,North,0,0.0,0.0,8,0.00,CLR,OVC,0.00,WeatherDisplay:10.37,2013-04-30 00:53:00,
2013-04-29 19:58:00,74.5,9.2,30.00,North,0,0.0,0.0,8,0.00,CLR,OVC,0.00,WeatherDisplay:10.37,2013-04-30 00:58:00,
2013-04-29 20:03:00,74.1,9.0,30.03,North,0,0.0,0.0,8,0.00,CLR,OVC,0.00,WeatherDisplay:10.37,2013-04-30 01:03:00,
2013-04-29 20:08:00,73.8,8.7,30.03,North,0,0.0,0.0,8,0.00,CLR,OVC,0.00,WeatherDisplay:10.37,2013-04-30 01:08:00,
2013-04-29 20:13:00,73.6,8.6,30.03,North,0,0.0,0.0,8,0.00,CLR,OVC,0.00,WeatherDisplay:10.37,2013-04-30 01:13:00,
2013-04-29 20:18:00,73.4,8.4,30.03,North,0,0.0,0.0,8,0.00,CLR,OVC,0.00,WeatherDisplay:10.37,2013-04-30 01:18:00,
2013-04-29 20:23:00,73.2,10.9,30.03,North,0,0.0,0.0,9,0.00,CLR,OVC,0.00,WeatherDisplay:10.37,2013-04-30 01:23:00,
2013-04-29 20:28:00,72.9,15.2,30.03,North,0,0.0,0.0,11,0.00,CLR,OVC,0.00,WeatherDisplay:10.37,2013-04-30 01:28:00,
2013-04-29 20:33:00,72.5,14.9,30.03,North,0,0.0,0.0,11,0.00,CLR,OVC,0.00,WeatherDisplay:10.37,2013-04-30 01:33:00,
2013-04-29 20:38:00,72.1,14.7,30.03,North,0,0.0,0.0,11,0.00,CLR,OVC,0.00,WeatherDisplay:10.37,2013-04-30 01:38:00,
2013-04-29 20:43:00,71.8,14.4,30.03,North,0,0.0,0.0,11,0.00,CLR,OVC,0.00,WeatherDisplay:10.37,2013-04-30 01:43:00,
2013-04-29 20:48:00,71.4,16.1,30.03,North,0,0.0,0.0,12,0.00,CLR,OVC,0.00,WeatherDisplay:10.37,2013-04-30 01:48:00,
2013-04-29 20:53:00,71.2,16.0,30.03,North,0,0.0,0.0,12,0.00,CLR,OVC,0.00,WeatherDisplay:10.37,2013-04-30 01:53:00,
2013-04-29 20:58:00,70.9,19.3,30.03,North,0,0.0,0.0,14,0.00,CLR,OVC,0.00,WeatherDisplay:10.37,2013-04-30 01:58:00,
2013-04-29 21:03:00,70.5,19.0,30.03,North,0,0.0,0.0,14,0.00,CLR,OVC,0.00,WeatherDisplay:10.37,2013-04-30 02:03:00,
2013-04-29 21:08:00,70.3,18.8,30.03,North,0,0.0,0.0,14,0.00,CLR,OVC,0.00,WeatherDisplay:10.37,2013-04-30 02:08:00,
2013-04-29 21:13:00,70.2,18.7,30.03,North,0,0.0,0.0,14,0.00,CLR,OVC,0.00,WeatherDisplay:10.37,2013-04-30 02:13:00,
2013-04-29 21:18:00,70.0,18.5,30.03,North,0,0.0,0.0,14,0.00,CLR,OVC,0.00,WeatherDisplay:10.37,2013-04-30 02:18:00,
2013-04-29 21:23:00,69.8,18.4,30.03,North,0,0.0,0.0,14,0.00,CLR,OVC,0.00,WeatherDisplay:10.37,2013-04-30 02:23:00,
2013-04-29 21:28:00,69.6,22.8,30.03,North,0,0.0,0.0,17,0.00,CLR,OVC,0.00,WeatherDisplay:10.37,2013-04-30 02:28:00,
2013-04-29 21:33:00,69.4,22.7,30.03,North,0,0.0,0.0,17,0.00,CLR,OVC,0.00,WeatherDisplay:10.37,2013-04-30 02:33:00,
2013-04-29 21:38:00,69.4,22.7,30.03,North,0,0.0,0.0,17,0.00,CLR,OVC,0.00,WeatherDisplay:10.37,2013-04-30 02:38:00,
2013-04-29 21:43:00,69.3,22.5,30.03,North,0,0.0,0.0,17,0.00,CLR,OVC,0.00,WeatherDisplay:10.37,2013-04-30 02:43:00,
2013-04-29 21:48:00,69.1,22.4,30.06,North,0,0.0,0.0,17,0.00,CLR,OVC,0.00,WeatherDisplay:10.37,2013-04-30 02:48:00,
2013-04-29 21:53:00,68.9,22.2,30.06,North,0,0.0,0.0,17,0.00,CLR,OVC,0.00,WeatherDisplay:10.37,2013-04-30 02:53:00,
2013-04-29 21:58:00,68.9,22.2,30.06,North,0,0.0,0.0,17,0.00,CLR,OVC,0.00,WeatherDisplay:10.37,2013-04-30 02:58:00,
2013-04-29 22:03:00,68.7,26.0,30.06,North,0,0.0,0.0,20,0.00,CLR,OVC,0.00,WeatherDisplay:10.37,2013-04-30 03:03:00,
2013-04-29 22:08:00,68.5,25.8,30.06,North,0,0.0,0.0,20,0.00,CLR,OVC,0.00,WeatherDisplay:10.37,2013-04-30 03:08:00,
2013-04-29 22:13:00,68.5,25.8,30.06,North,0,0.0,0.0,20,0.00,CLR,OVC,0.00,WeatherDisplay:10.37,2013-04-30 03:13:00,
2013-04-29 22:18:00,68.4,25.7,30.06,North,0,0.0,0.0,20,0.00,CLR,OVC,0.00,WeatherDisplay:10.37,2013-04-30 03:18:00,
2013-04-29 22:23:00,68.2,27.9,30.06,North,0,0.0,0.0,22,0.00,CLR,OVC,0.00,WeatherDisplay:10.37,2013-04-30 03:23:00,
2013-04-29 22:28:00,68.0,27.7,30.06,North,0,0.0,0.0,22,0.00,CLR,OVC,0.00,WeatherDisplay:10.37,2013-04-30 03:28:00,
2013-04-29 22:33:00,67.8,27.6,30.06,North,0,0.0,0.0,22,0.00,CLR,OVC,0.00,WeatherDisplay:10.37,2013-04-30 03:33:00,
2013-04-29 22:38:00,67.6,27.4,30.06,North,0,0.0,0.0,22,0.00,CLR,OVC,0.00,WeatherDisplay:10.37,2013-04-30 03:38:00,
2013-04-29 22:43:00,67.5,28.3,30.06,North,0,0.0,0.0,23,0.00,CLR,OVC,0.00,WeatherDisplay:10.37,2013-04-30 03:43:00,
2013-04-29 22:48:00,67.5,28.3,30.03,North,0,0.0,0.0,23,0.00,CLR,OVC,0.00,WeatherDisplay:10.37,2013-04-30 03:48:00,
2013-04-29 22:53:00,67.3,28.2,30.03,North,0,0.0,0.0,23,0.00,CLR,OVC,0.00,WeatherDisplay:10.37,2013-04-30 03:53:00,
2013-04-29 22:58:00,67.3,28.2,30.06,North,0,0.0,0.0,23,0.00,CLR,OVC,0.00,WeatherDisplay:10.37,2013-04-30 03:58:00,
2013-04-29 23:01:00,67.1,28.0,30.06,North,0,0.0,0.0,23,0.00,CLR,OVC,0.00,WeatherDisplay:10.37,2013-04-30 04:01:00,
2013-04-29 23:02:00,67.1,28.0,30.06,North,0,0.0,0.0,23,0.00,CLR,OVC,0.00,WeatherDisplay:10.37,2013-04-30 04:02:00,
2013-04-29 23:03:00,67.1,28.0,30.06,North,0,0.0,0.0,23,0.00,CLR,OVC,0.00,WeatherDisplay:10.37,2013-04-30 04:03:00,
2013-04-29 23:08:00,67.1,28.0,30.06,North,0,0.0,0.0,23,0.00,CLR,OVC,0.00,WeatherDisplay:10.37,2013-04-30 04:08:00,
2013-04-29 23:13:00,66.9,27.9,30.06,North,0,0.0,0.0,23,0.00,CLR,OVC,0.00,WeatherDisplay:10.37,2013-04-30 04:13:00,
2013-04-29 23:18:00,66.9,27.9,30.06,North,0,0.0,0.0,23,0.00,CLR,OVC,0.00,WeatherDisplay:10.37,2013-04-30 04:18:00,
2013-04-29 23:23:00,66.9,27.9,30.06,North,0,0.0,0.0,23,0.00,CLR,OVC,0.00,WeatherDisplay:10.37,2013-04-30 04:23:00,
2013-04-29 23:28:00,66.7,27.7,30.03,North,0,0.0,0.0,23,0.00,CLR,OVC,0.00,WeatherDisplay:10.37,2013-04-30 04:28:00,
2013-04-29 23:33:00,66.7,27.7,30.03,North,0,0.0,0.0,23,0.00,CLR,OVC,0.00,WeatherDisplay:10.37,2013-04-30 04:33:00,
2013-04-29 23:38:00,66.6,27.6,30.03,North,0,0.0,0.0,23,0.00,CLR,OVC,0.00,WeatherDisplay:10.37,2013-04-30 04:38:00,
2013-04-29 23:43:00,66.4,27.4,30.03,North,0,0.0,0.0,23,0.00,CLR,OVC,0.00,WeatherDisplay:10.37,2013-04-30 04:43:00,
2013-04-29 23:48:00,66.2,28.3,30.06,North,0,0.0,0.0,24,0.00,CLR,OVC,0.00,WeatherDisplay:10.37,2013-04-30 04:48:00,
2013-04-29 23:53:00,66.2,28.3,30.06,North,0,0.0,0.0,24,0.00,CLR,OVC,0.00,WeatherDisplay:10.37,2013-04-30 04:53:00,
2013-04-29 23:58:00,66.0,28.2,30.03,North,0,0.0,0.0,24,0.00,CLR,OVC,0.00,WeatherDisplay:10.37,2013-04-30 04:58:00,